{"data":{"norad_id":55506,"epoch":"2026-09-19T13:03:02.354400Z","epoch_age_seconds":104630,"freshness":"FRESH","line1":"1 55506U 23016A   26262.54377725 -.00000063  00000+0  00000+0 0  9999","line2":"2 55506   0.0630  57.3318 0002236 138.2578 164.4143  1.00270474 13288","mean_motion":1.00270474,"eccentricity":0.0002236,"inclination_deg":0.063,"raan_deg":57.3318,"arg_perigee_deg":138.2578,"mean_anomaly_deg":164.4143,"bstar":0,"rev_number":1328,"period_min":1436.1156804744,"perigee_km":35777.534369841,"apogee_km":35796.390602331,"semimajor_km":42165.099486086,"source":"CELESTRAK","updated_at":"2026-09-20T09:00:35.329949Z"}}